Flag for Spain Weather past 2 weeks in Barcelona, Barcelona, Spain

Now
64 °F

Passing clouds.


Feels Like: 64 °F
Forecast: 59 / 74 °F
Wind: 3 mph from North

Location: Barcelona Airport

Current Time: Sep 5, 2015 at 4:16:11 AM

Latest Report: Sep 5, 2015 at 3:30 AM


Visibility: N/A

Pressure: 30.01 "Hg

Humidity: 83%

Dew point: 59 °F

Location of BarcelonaLocation

Historic Weather in Barcelona — Graph

°F

Barcelona temperature yesterday

Maximum temperature yesterday: 73 °F (at 12:30 AM)
Minimum temperature yesterday: 66 °F (at 10:00 PM)
Average temperature yesterday: 70 °F

Past Weeks' High & Low Weather Summary

 TemperatureHumidityPressure
High90 °F (Aug 24, 2:30 PM)94% (Aug 21, 7:30 AM)30.15 "Hg (Aug 21, 7:30 AM)
Low64 °F (Sep 5, 12:00 AM)26% (Aug 24, 2:30 PM)29.68 "Hg (Aug 23, 6:30 PM)
Average77 °F73%29.99 "Hg
* Reported Aug 21 3:00 AM — Sep 5 3:00 AM, Barcelona, Weather by CustomWeather, © 2015

Note: Actual official high and low records may vary slightly from our data, if they occured in-between our weather recording intervals... More about our weather records

Advertising

Barcelona weather history for previous 24 hours

 ConditionsComfort  
Time TempWeatherWind HumidityBarometerVisibility
3:00 AM
Sat, Sep 5
64 °FPassing clouds.6 mph83%30.01 "HgN/A
2:30 AM64 °FPassing clouds.9 mph88%30.01 "HgN/A
2:00 AM64 °FPassing clouds.8 mph88%30.01 "HgN/A
1:30 AM64 °FPassing clouds.7 mph88%30.01 "HgN/A
1:00 AM64 °FPassing clouds.7 mph88%30.01 "HgN/A
12:30 AM64 °FPassing clouds.7 mph88%30.01 "HgN/A
12:00 AM64 °FPassing clouds.8 mph88%30.01 "HgN/A
11:30 PM
Fri, Sep 4
66 °FPassing clouds.3 mph88%30.01 "HgN/A
11:00 PM66 °FPassing clouds.6 mph83%30.01 "HgN/A
10:30 PM66 °FPassing clouds.5 mph88%30.01 "HgN/A
10:00 PM66 °FPassing clouds.5 mph88%30.01 "HgN/A
9:30 PM68 °FPassing clouds.6 mph83%30.01 "HgN/A
9:00 PM68 °FScattered clouds.9 mph83%29.95 "HgN/A
8:30 PM68 °FPartly sunny.6 mph83%29.98 "HgN/A
8:00 PM68 °FPartly sunny.7 mph83%29.98 "Hg6 mi
7:30 PM68 °FPartly sunny.5 mph83%29.98 "Hg4 mi
7:00 PM68 °FPartly sunny.3 mph78%29.98 "Hg4 mi
6:30 PM68 °FScattered clouds.5 mph78%29.98 "Hg4 mi
6:00 PM68 °FScattered clouds.6 mph78%29.98 "Hg4 mi
5:30 PM68 °FLight rain. Partly sunny.7 mph78%29.98 "Hg4 mi
5:00 PM68 °FRain. Overcast.5 mph78%29.98 "Hg4 mi
4:30 PM70 °FRain. Overcast.5 mph73%30.01 "Hg5 mi
4:00 PM70 °FLight rain. Overcast.3 mph73%29.98 "Hg6 mi
3:30 PM70 °FRain. Overcast.3 mph69%29.98 "Hg5 mi
3:00 PM72 °FPartly sunny.8 mph61%29.98 "HgN/A
2:30 PM73 °FPartly sunny.10 mph53%29.95 "HgN/A
2:00 PM73 °FPartly sunny.17 mph53%29.95 "HgN/A
1:30 PM73 °FScattered clouds.13 mph57%29.98 "HgN/A
1:00 PM72 °FScattered clouds.13 mph65%29.98 "Hg6 mi
12:30 PM70 °FPartly sunny.10 mph73%30.01 "Hg6 mi
12:00 PM72 °FThunderstorms. Partly sunny.7 mph69%30.04 "Hg6 mi
11:30 AM72 °FPartly sunny.6 mph61%30.01 "HgN/A
11:00 AM72 °FScattered clouds.8 mph61%29.98 "HgN/A
10:30 AM72 °FScattered clouds.8 mph61%29.98 "HgN/A
10:00 AM72 °FScattered clouds.7 mph69%29.98 "HgN/A
9:30 AM72 °FScattered clouds.5 mph65%29.98 "HgN/A
9:00 AM70 °FScattered clouds.5 mph69%29.98 "HgN/A
8:30 AM70 °FPassing clouds.6 mph73%29.98 "HgN/A
8:00 AM70 °FPassing clouds.3 mph78%29.95 "HgN/A
7:30 AM68 °FPassing clouds.6 mph83%29.95 "HgN/A
7:00 AM68 °FPassing clouds.8 mph83%29.98 "HgN/A
6:30 AM68 °FPassing clouds.6 mph83%29.95 "HgN/A
6:00 AM68 °FPassing clouds.6 mph83%29.95 "HgN/A
5:30 AM68 °FPassing clouds.7 mph83%29.98 "HgN/A
4:30 AM68 °FPassing clouds.6 mph83%29.95 "HgN/A
4:00 AM68 °FPassing clouds.1 mph83%29.95 "HgN/A
Weather by CustomWeather, © 2015

See weather overviewHow to use our weather pages